TimeAKDT,TemperatureF,Dew PointF,Humidity,Sea Level PressureIn,VisibilityMPH,Wind Direction,Wind SpeedMPH,Gust SpeedMPH,PrecipitationIn,Events,Conditions,WindDirDegrees,DateUTC
12:53 AM,23.0,15.1,72,30.01,10.0,Calm,Calm,-,N/A,,Clear,0,2012-10-28 08:53:00
1:53 AM,21.9,15.1,75,30.01,10.0,ENE,3.5,-,N/A,,Clear,60,2012-10-28 09:53:00
2:53 AM,24.1,15.1,69,30.00,10.0,ENE,3.5,-,N/A,,Clear,70,2012-10-28 10:53:00
3:53 AM,21.9,14.0,72,30.00,10.0,Calm,Calm,-,N/A,,Clear,0,2012-10-28 11:53:00
4:53 AM,21.0,14.0,74,29.99,10.0,Calm,Calm,-,N/A,,Clear,0,2012-10-28 12:53:00
5:53 AM,19.9,12.9,74,29.98,10.0,Calm,Calm,-,N/A,,Clear,0,2012-10-28 13:53:00
6:53 AM,19.9,12.9,74,29.98,10.0,Calm,Calm,-,N/A,,Clear,0,2012-10-28 14:53:00
7:53 AM,19.9,12.9,74,29.98,10.0,Calm,Calm,-,N/A,,Clear,0,2012-10-28 15:53:00
8:53 AM,19.9,12.9,74,29.99,10.0,NE,4.6,-,N/A,,Clear,40,2012-10-28 16:53:00
9:53 AM,21.9,14.0,72,29.98,10.0,NE,3.5,-,N/A,,Clear,50,2012-10-28 17:53:00
10:53 AM,28.9,18.0,64,29.99,10.0,NE,4.6,-,N/A,,Clear,50,2012-10-28 18:53:00
11:53 AM,34.0,19.9,56,29.98,10.0,ENE,3.5,-,N/A,,Clear,60,2012-10-28 19:53:00
12:53 PM,37.0,19.0,48,29.98,10.0,ENE,4.6,-,N/A,,Clear,60,2012-10-28 20:53:00
1:53 PM,37.9,19.9,48,29.98,10.0,Calm,Calm,-,N/A,,Clear,0,2012-10-28 21:53:00
2:53 PM,39.9,19.9,45,29.98,10.0,Variable,3.5,-,N/A,,Clear,0,2012-10-28 22:53:00
3:53 PM,41.0,15.1,35,29.98,10.0,Calm,Calm,-,N/A,,Clear,0,2012-10-28 23:53:00
4:53 PM,41.0,17.1,38,29.97,10.0,Calm,Calm,-,N/A,,Clear,0,2012-10-29 00:53:00
5:53 PM,37.9,24.1,57,29.97,9.0,SW,3.5,-,N/A,,Clear,230,2012-10-29 01:53:00
6:53 PM,30.9,19.9,64,29.98,10.0,NNE,3.5,-,N/A,,Clear,30,2012-10-29 02:53:00
7:53 PM,28.9,18.0,64,29.99,10.0,Calm,Calm,-,N/A,,Clear,0,2012-10-29 03:53:00
8:53 PM,30.0,17.1,59,29.99,10.0,Calm,Calm,-,N/A,,Clear,0,2012-10-29 04:53:00
9:53 PM,27.0,18.0,69,30.00,10.0,Calm,Calm,-,N/A,,Clear,0,2012-10-29 05:53:00
10:53 PM,27.0,19.0,72,30.01,10.0,Calm,Calm,-,N/A,,Clear,0,2012-10-29 06:53:00
11:53 PM,25.0,18.0,75,30.01,10.0,NNE,3.5,-,N/A,,Clear,30,2012-10-29 07:53:00